CALSPHERE 1 1 00900U 64063C 26037.02713335 .00000748 00000+0 75401-3 0 9998 2 00900 90.2161 68.7314 0024128 333.5886 57.6695 13.76455482 53384 CALSPHERE 2 1 00902U 64063E 26037.04274612 .00000039 00000+0 45225-4 0 9997 2 00902 90.2293 72.7037 0016759 245.5278 147.3355 13.52888865838534 LCS 1 1 01361U 65034C 26037.20351880 .00000004 00000+0 -61814-3 0 9991 2 01361 32.1390 128.0219 0013378 17.4389 342.6566 9.89309850196917 TEMPSAT 1 1 01512U 65065E 26036.99957193 .00000047 00000+0 77106-4 0 9995 2 01512 89.9878 212.6098 0067898 256.7271 231.1268 13.33587121942569 CALSPHERE 4A 1 01520U 65065H 26037.11336922 .00000129 00000+0 22868-3 0 9995 2 01520 89.9089 123.7597 0071693 113.4817 320.0155 13.36253340945204 OPS 5712 (P/L 160) 1 02826U 67053A 26037.11534311 .00015871 00000+0 23293-2 0 9998 2 02826 69.9198 359.0526 0006136 256.0829 103.9635 14.75580555 46888 OPS 5712 (P/L 153) 1 02874U 67053H 26037.00581587 .00000060 00000+0 81766-4 0 9991 2 02874 69.9737 36.4777 0007541 342.9575 17.1276 13.96805397988460 RIGIDSPHERE 2 (LCS 4) 1 05398U 71067E 26037.14259094 .00001389 00000+0 44786-3 0 9990 2 05398 87.6227 15.1583 0058285 309.2612 50.3424 14.37683553855059 COSMOS 2493 (SKRL-756 1) 1 39490U 13078A 26037.09160856 .00005408 00000+0 41786-3 0 9992 2 39490 82.4123 29.3640 0012254 336.2556 23.8101 15.01297243658283 COSMOS 2494 (SKRL-756 2) 1 39491U 13078B 26037.12117436 .00006387 00000+0 46067-3 0 9997 2 39491 82.4132 19.2630 0014460 292.6686 67.3011 15.03899533659108